This is the latest recevied weather packets stored in our database for station/object MIDVIL-WX. If no packets are shown the sender has not sent any weather packets the latest 10 day(s).
| Time | Temp. | Humidity | Pressure | Rain* | Wind** | Luminosity | Snow |
|---|---|---|---|---|---|---|---|
| 1778127327 | 6.11° C | 58% | 987.8 hPa | 0 mm | - | - | - |
| 1778126459 | 6.67° C | 58% | 987.8 hPa | 0 mm | - | - | - |
| 1778125528 | 7.22° C | 51% | 988.7 hPa | 0 mm | - | - | - |
| 1778124642 | 6.67° C | 55% | 987.3 hPa | 0 mm | - | - | - |
| 1778123727 | 6.67° C | 55% | 987.3 hPa | 0 mm | - | - | - |
| 1778122858 | 7.22° C | 55% | 987.3 hPa | 0 mm | - | - | - |
| 1778121926 | 6.67° C | 51% | 988.2 hPa | 0 mm | - | - | - |
| 1778121041 | 7.22° C | 51% | 987.9 hPa | 0 mm | - | - | - |
| 1778120126 | 7.22° C | 51% | 987.9 hPa | 0 mm | - | - | - |
| 1778119249 | 7.22° C | 51% | 987.9 hPa | 0 mm | - | - | - |
| 1778118326 | 6.67° C | 49% | 987.5 hPa | 0 mm | - | - | - |
| 1778117442 | 7.22° C | 49% | 987.5 hPa | 0 mm | - | - | - |
| 1778116526 | 7.78° C | 49% | 987.5 hPa | 0 mm | - | - | - |
| 1778115650 | 7.78° C | 49% | 987.5 hPa | 0 mm | - | - | - |
| 1778114726 | 7.78° C | 40% | 988.3 hPa | 0 mm | - | - | - |
| 1778113843 | 8.33° C | 42% | 988.2 hPa | 0 mm | - | - | - |
| 1778112925 | 8.89° C | 42% | 988.2 hPa | 0 mm | - | - | - |
| 1778112058 | 9.44° C | 42% | 988.2 hPa | 0 mm | - | - | - |
| 1778111126 | 10° C | 37% | 986.8 hPa | 0 mm | - | - | - |
| 1778110249 | 10° C | 38% | 987.2 hPa | 0 mm | - | - | - |
| 1778109326 | 10.56° C | 38% | 987.2 hPa | 0 mm | - | - | - |
| 1778108453 | 10.56° C | 38% | 987.2 hPa | 0 mm | - | - | - |
| 1778107526 | 10.56° C | 35% | 987.4 hPa | 0 mm | - | - | - |
| 1778106640 | 10.56° C | 36% | 987.7 hPa | 0 mm | - | - | - |
| 1778105726 | 11.11° C | 36% | 987.7 hPa | 0 mm | - | - | - |
* Rain latest hour (hover to see other rain measurements)
** Current wind speed in m/s (hover to see current wind gust speed)